Location: *
(43.9900°N, 3.4811°E)
Time: 16:35:29
(UTC+00:00)

Okean 3 - Pass Details

Date: 25 August 2019
Orbit: 578 x 600 km, 82.5° (Epoch: 16 October)

Event Time Altitude Azimuth Distance (km) Brightness Sun altitude
Rises 19:25:58 0° 352° (N) 2,808 7.4 -9.5°
Reaches altitude 10° 19:28:10 10° 353° (N) 1,906 6.5 -9.8°
Maximum altitude 19:32:23 81° 82° (E) 595 3.4 -10.5°
Drops below altitude 10° 19:36:35 10° 170° (S) 1,901 5.7 -11.2°
Enters shadow 19:38:14 - 171° (S) 2,582 6.4 -11.4°
